RH
54 59 63 56 72 69 67 64 59 50 46 42 38 39 39 39 41 47 50 55 56 61
68 68 69 76 82 69 64 60 51 51 39 36 39 39 39 41 43 48 52 56 65 69
74 75 75 75 62 61 55 54 53 38 32 32 34 39 44 46 44 46 53 61 68 77
59 56 55 56 49 49 46 45 36 34 32 34 38 38 37 38 37 34 35 39 49 54
45 56 58 57 51 43 47 41 40 33 37 36 40 42 40 40 44 42 43 43 40 38
46 60 76 74 60 63 72 70 62 46 40 41 43 44 44 47 47 46 48 48 49 47
40 52 71 64 69 82 94 82 53 49 40 47 43 46 44 45 46 51 56 56 56 58
50 58 65 80 78 97 86 68 63 56 51 49 42 45 49 55 55 57 57 59 63 65
35 49 64 67 98 85 70 70 73 58 49 39 46 52 60 60 60 65 71 75 76 77
41 46 54 67 90 93 89 76 74 52 39 46 55 60 60 60 65 78 87 88 86 86
35 39 48 67 93 94 87 76 57 41 45 54 60 59 53 58 80 91 94 93 89 89
44 46 54 76 91 89 79 64 44 43 49 51 54 50 49 73 87 91 91 89 92 94
44 55 64 78 80 74 71 56 44 47 48 55 53 47 56 77 86 88 91 93 94 96
51 61 64 67 74 79 69 46 46 47 56 58 51 45 59 73 84 89 93 96 98 98